Location: Buenos Aires
(34.6076°S, 58.4371°W)
Time: 11:58:40
(UTC-03:00)

Envisat - Pass Details

Date: 26 June 2021
Orbit: 764 x 766 km, 98.2° (Epoch: 03 August)

Event Time Altitude Azimuth Distance (km) Brightness Sun altitude
Rises 04:26:14 0° 50° (NE) 3,225 6.8 -43.3°
Reaches altitude 10° 04:29:01 10° 65° (ENE) 2,308 6.0 -42.8°
Enters shadow 04:29:59 14° 74° (ENE) 2,050 5.7 -42.6°
